Tiempo cada hora Cayo Santa María

Hoy, 27 Enero, Miércoles

Tiempo Temperatura Precipitaciones Viento Presión Humedad
00:00 +22°C° 0 mm 6 mps 762 mmHg 94%
01:00 +22°C° 0 mm 5 mps 762 mmHg 95%
02:00 +22°C° 0 mm 5 mps 762 mmHg 95%
03:00 +22°C° 0 mm 5 mps 761 mmHg 95%
04:00 +22°C° 0 mm 4 mps 761 mmHg 96%
05:00 +22°C° 0.1 mm 4 mps 761 mmHg 96%
06:00 +22°C° 0.1 mm 4 mps 762 mmHg 95%
07:00 +22°C° 0.1 mm 4 mps 762 mmHg 95%
08:00 +25°C° 0 mm 4 mps 763 mmHg 87%
09:00 +27°C° 0 mm 3 mps 763 mmHg 78%
10:00 +29°C° 0 mm 3 mps 763 mmHg 69%
11:00 +30°C° 0 mm 3 mps 763 mmHg 62%
12:00 +31°C° 0 mm 3 mps 763 mmHg 54%
13:00 +33°C° 0 mm 3 mps 762 mmHg 47%
14:00 +33°C° 0 mm 3 mps 762 mmHg 52%
15:00 +32°C° 0 mm 4 mps 761 mmHg 57%
16:00 +30°C° 0 mm 4 mps 761 mmHg 62%
17:00 +28°C° 0 mm 4 mps 762 mmHg 72%
18:00 +27°C° 0 mm 5 mps 762 mmHg 82%
19:00 +25°C° 0 mm 5 mps 763 mmHg 93%
20:00 +23°C° 0 mm 4 mps 763 mmHg 93%
21:00 +23°C° 0 mm 4 mps 763 mmHg 94%
22:00 +24°C° 0 mm 3 mps 763 mmHg 95%
23:00 +22°C° 0 mm 3 mps 763 mmHg 95%

Mañana, 28 Enero, Jueves

Tiempo Temperatura Precipitaciones Viento Presión Humedad
00:00 +23°C° 0 mm 2 mps 763 mmHg 95%
01:00 +23°C° 0 mm 1 mps 763 mmHg 95%
02:00 +23°C° 0 mm 1 mps 763 mmHg 95%
03:00 +23°C° 0 mm 1 mps 762 mmHg 95%
04:00 +23°C° 0 mm 1 mps 762 mmHg 96%
05:00 +23°C° 0 mm 2 mps 762 mmHg 95%
06:00 +23°C° 0 mm 2 mps 763 mmHg 95%
07:00 +22°C° 0 mm 3 mps 763 mmHg 94%
08:00 +24°C° 0 mm 3 mps 763 mmHg 86%
09:00 +26°C° 0 mm 4 mps 764 mmHg 77%
10:00 +28°C° 0 mm 5 mps 764 mmHg 68%
11:00 +28°C° 0 mm 5 mps 764 mmHg 65%
12:00 +29°C° 0 mm 5 mps 763 mmHg 62%
13:00 +29°C° 0 mm 5 mps 763 mmHg 58%
14:00 +29°C° 0 mm 5 mps 763 mmHg 62%
15:00 +28°C° 0 mm 5 mps 763 mmHg 65%
16:00 +27°C° 0 mm 6 mps 762 mmHg 68%
17:00 +26°C° 0.3 mm 8 mps 763 mmHg 74%
18:00 +24°C° 0.3 mm 10 mps 763 mmHg 80%
19:00 +23°C° 0.3 mm 13 mps 764 mmHg 86%
20:00 +23°C° 0 mm 12 mps 764 mmHg 83%
21:00 +22°C° 0 mm 12 mps 764 mmHg 80%
22:00 +22°C° 0 mm 12 mps 765 mmHg 77%
23:00 +21°C° 0 mm 11 mps 765 mmHg 77%

Pasado mañana, 29 Enero, Viernes

Tiempo Temperatura Precipitaciones Viento Presión Humedad
00:00 +19°C° 0 mm 11 mps 765 mmHg 77%
01:00 +19°C° 0 mm 10 mps 764 mmHg 77%
02:00 +18°C° 0 mm 10 mps 764 mmHg 78%
03:00 +18°C° 0 mm 10 mps 764 mmHg 79%
04:00 +18°C° 0 mm 10 mps 763 mmHg 80%
05:00 +18°C° 0 mm 10 mps 764 mmHg 76%
06:00 +19°C° 0 mm 10 mps 764 mmHg 72%
07:00 +19°C° 0 mm 10 mps 765 mmHg 69%
08:00 +19°C° 0.1 mm 9 mps 765 mmHg 69%
09:00 +19°C° 0.1 mm 9 mps 765 mmHg 69%
10:00 +21°C° 0.1 mm 9 mps 766 mmHg 69%
11:00 +21°C° 0 mm 9 mps 765 mmHg 67%
12:00 +22°C° 0 mm 9 mps 765 mmHg 64%
13:00 +22°C° 0 mm 8 mps 765 mmHg 61%
14:00 +22°C° 0 mm 9 mps 765 mmHg 62%
15:00 +22°C° 0 mm 9 mps 764 mmHg 63%
16:00 +22°C° 0 mm 9 mps 764 mmHg 65%
17:00 +22°C° 0 mm 9 mps 764 mmHg 68%
18:00 +21°C° 0 mm 9 mps 764 mmHg 71%
19:00 +19°C° 0 mm 9 mps 764 mmHg 74%
20:00 +19°C° 0 mm 9 mps 765 mmHg 76%
21:00 +19°C° 0 mm 9 mps 765 mmHg 77%
22:00 +19°C° 0 mm 9 mps 765 mmHg 78%
23:00 +19°C° 0 mm 9 mps 765 mmHg 76%

30 Enero, Sábado

Tiempo Temperatura Precipitaciones Viento Presión Humedad
00:00 +19°C° 0 mm 9 mps 765 mmHg 74%
01:00 +19°C° 0 mm 9 mps 764 mmHg 71%
02:00 +21°C° 0 mm 9 mps 764 mmHg 70%
03:00 +21°C° 0 mm 9 mps 764 mmHg 70%
04:00 +21°C° 0 mm 9 mps 764 mmHg 69%
05:00 +19°C° 0 mm 9 mps 764 mmHg 72%
06:00 +19°C° 0 mm 10 mps 764 mmHg 76%
07:00 +19°C° 0 mm 10 mps 764 mmHg 79%
08:00 +21°C° 0.1 mm 10 mps 764 mmHg 73%
09:00 +22°C° 0.1 mm 10 mps 765 mmHg 67%
10:00 +23°C° 0.1 mm 10 mps 765 mmHg 60%
11:00 +24°C° 0 mm 10 mps 765 mmHg 59%
12:00 +24°C° 0 mm 10 mps 764 mmHg 59%
13:00 +26°C° 0 mm 10 mps 764 mmHg 58%
14:00 +26°C° 0 mm 10 mps 763 mmHg 60%
15:00 +24°C° 0 mm 10 mps 763 mmHg 62%
16:00 +24°C° 0 mm 10 mps 763 mmHg 64%
17:00 +23°C° 0 mm 10 mps 763 mmHg 68%
18:00 +21°C° 0 mm 10 mps 763 mmHg 73%
19:00 +19°C° 0 mm 10 mps 763 mmHg 77%
20:00 +19°C° 0 mm 10 mps 763 mmHg 79%
21:00 +19°C° 0 mm 10 mps 764 mmHg 82%
22:00 +18°C° 0 mm 10 mps 764 mmHg 84%
23:00 +18°C° 0 mm 9 mps 764 mmHg 85%

31 Enero, Domingo

Tiempo Temperatura Precipitaciones Viento Presión Humedad
00:00 +18°C° 0 mm 9 mps 763 mmHg 86%
01:00 +18°C° 0 mm 8 mps 763 mmHg 87%
02:00 +17°C° 0 mm 8 mps 763 mmHg 88%
03:00 +17°C° 0 mm 8 mps 763 mmHg 90%
04:00 +17°C° 0 mm 7 mps 763 mmHg 91%
05:00 +17°C° 0 mm 7 mps 763 mmHg 91%
06:00 +17°C° 0 mm 7 mps 763 mmHg 91%
07:00 +17°C° 0 mm 7 mps 763 mmHg 91%
08:00 +21°C° 0 mm 7 mps 763 mmHg 83%
09:00 +23°C° 0 mm 7 mps 764 mmHg 75%
10:00 +26°C° 0 mm 6 mps 764 mmHg 66%
11:00 +27°C° 0 mm 6 mps 763 mmHg 63%
12:00 +28°C° 0 mm 6 mps 763 mmHg 59%
13:00 +29°C° 0 mm 6 mps 762 mmHg 56%
14:00 +30°C° 0 mm 7 mps 762 mmHg 53%
15:00 +30°C° 0 mm 7 mps 761 mmHg 51%
16:00 +30°C° 0 mm 7 mps 761 mmHg 49%
17:00 +28°C° 0 mm 7 mps 761 mmHg 60%
18:00 +26°C° 0 mm 7 mps 761 mmHg 72%
19:00 +23°C° 0 mm 7 mps 761 mmHg 84%
20:00 +22°C° 0 mm 7 mps 761 mmHg 87%
21:00 +22°C° 0 mm 7 mps 762 mmHg 90%
22:00 +21°C° 0 mm 7 mps 762 mmHg 93%
23:00 +21°C° 0 mm 6 mps 762 mmHg 94%

1 Febrero, Lunes

Tiempo Temperatura Precipitaciones Viento Presión Humedad
00:00 +21°C° 0 mm 6 mps 761 mmHg 95%
01:00 +21°C° 0 mm 5 mps 761 mmHg 95%
02:00 +20°C° 0 mm 5 mps 761 mmHg 95%
03:00 +20°C° 0 mm 5 mps 760 mmHg 95%
04:00 +20°C° 0 mm 4 mps 760 mmHg 95%
05:00 +20°C° 0 mm 4 mps 760 mmHg 95%
06:00 +20°C° 0 mm 4 mps 760 mmHg 95%
07:00 +20°C° 0 mm 4 mps 761 mmHg 95%
08:00 +22°C° 0 mm 4 mps 761 mmHg 84%
09:00 +25°C° 0 mm 4 mps 761 mmHg 73%
10:00 +27°C° 0 mm 4 mps 762 mmHg 62%
11:00 +28°C° 0 mm 4 mps 761 mmHg 57%
12:00 +29°C° 0 mm 5 mps 761 mmHg 51%
13:00 +32°C° 0 mm 5 mps 760 mmHg 46%
14:00 +30°C° 0 mm 5 mps 760 mmHg 49%
15:00 +29°C° 0 mm 5 mps 759 mmHg 53%
16:00 +29°C° 0 mm 5 mps 759 mmHg 56%
17:00 +27°C° 0 mm 5 mps 759 mmHg 64%
18:00 +24°C° 0 mm 6 mps 759 mmHg 72%
19:00 +23°C° 0 mm 7 mps 760 mmHg 80%
20:00 +22°C° 0 mm 7 mps 760 mmHg 84%
21:00 +22°C° 0 mm 8 mps 760 mmHg 88%
22:00 +22°C° 0 mm 9 mps 761 mmHg 91%
23:00 +22°C° 0 mm 9 mps 761 mmHg 87%
Mostrar más